[ hide orbit diagram ]
For accurate long-term ephemerides, please instead use our Horizons system.This orbit viewer was implemented using two-body methods, and hence should not be used for determining accurate long-term trajectories (over several years or decades) or planetary encounter circumstances.
Orbital Elements at Epoch 2459200.5 (2020-Dec-17.0) TDB
Reference: JPL 45 (heliocentric ecliptic J2000)
Element | Value | Uncertainty (1-sigma) | Units |
e | .1746672706445515 | 3.6517e-08 | |
a | 2.552704086912491 | 7.0255e-09 | au |
q | 2.106830231288294 | 9.4449e-08 | au |
i | 6.065697109644294 | 3.0017e-06 | deg |
node | 152.2049655004267 | 3.8689e-05 | deg |
peri | 51.96567441647098 | 3.972e-05 | deg |
M | 240.6622302940038 | 1.0589e-05 | deg |
tp | 2459694.326684370265 (2022-Apr-24.82668437) | 4.45e-05 | TDB |
period | 1489.701096402867 4.08 | 6.1498e-06 1.684e-08 | d yr |
n | .2416592166504276 | 9.9763e-10 | deg/d |
Q | 2.998577942536688 | 8.2526e-09 | au |
|
| | Orbit Determination Parameters
Additional Information
|
[ hide covariance matrix ]
Orbital Elements at Epoch 2456930.5 (2014-Sep-30.0) TDB
Reference: JPL 45 (heliocentric ecliptic J2000)
Element | Value | Uncertainty (1-sigma) | Units |
e | .1742912627264459 | 3.6626e-08 | |
q | 2.107988923884583 | 9.4727e-08 | au |
tp | 2456715.683580425536 (2014-Feb-27.18358043) | 4.1766e-05 | TDB |
node | 152.2533277766962 | 3.8685e-05 | deg |
peri | 52.09379334923236 | 3.9711e-05 | deg |
i | 6.065522627856094 | 3.0021e-06 | deg |
|
| | Orbit Determination Parameters
Additional Information
|
Orbit Covariance (6×6)
|
|
e |
q |
tp |
node |
peri |
i |
e |
1.341480389353009E-15 |
-3.4631436934705E-15 |
5.078975521189206E-13 |
-5.40765000614438E-15 |
1.200581088065981E-13 |
-8.637688517664337E-16 |
q |
-3.4631436934705E-15 |
8.973281952212161E-15 |
-1.27872600985132E-12 |
1.524220227260639E-14 |
-3.049789386215575E-13 |
2.394929166521045E-15 |
tp |
5.078975521189206E-13 |
-1.27872600985132E-12 |
1.744376246031475E-9 |
2.410532747941467E-12 |
4.007909625424564E-10 |
-6.180617930270395E-13 |
node |
-5.40765000614438E-15 |
1.524220227260639E-14 |
2.410532747941467E-12 |
1.496520466509732E-9 |
-1.487064246332198E-9 |
1.315363906224955E-11 |
peri |
1.200581088065981E-13 |
-3.049789386215575E-13 |
4.007909625424564E-10 |
-1.487064246332198E-9 |
1.576986649713222E-9 |
-1.322268199514093E-11 |
i |
-8.637688517664337E-16 |
2.394929166521045E-15 |
-6.180617930270395E-13 |
1.315363906224955E-11 |
-1.322268199514093E-11 |
9.012340240235571E-12 |
|
Physical Parameter Table
Parameter |
Symbol |
Value |
Units |
Sigma |
Reference |
Notes |
absolute magnitude |
H |
10.45 |
|
n/a |
E2021B10 |
IRAS observations used: 19 |
diameter |
diameter |
54.730 |
km |
0.957 |
urn:nasa:pds:neowise_diameters_albedos::2.0[mainbelt] (http://adsabs.harvard.edu/abs/2011ApJ...741...68M) |
|
rotation period |
rot_per |
21.905 |
h |
n/a |
LCDB (Rev. 2020-October); Warner et al., 2009 |
Published Reference List: [Behrend, R. (2005) Observatoire de Geneve web site, http://obswww.unige.ch/~behrend/page_cou.html] [Torno, S.; Oliver, R.L.; Ditteon, R. (2008) Minor Planet Bull. 35, 54-55.] [Ruthroff, J.C. (2009) Minor Planet Bull. 36, 121-122.] [Pilcher, F. (2014) Minor Planet Bull. 41, 205.] [Stephens, R.D. (2014) Minor Planet Bull. 41, 226-230.] [Waszczak, A.; Chang, C.-K.; Ofeck, E.O.; Laher, F.; et al. (2015) Astron. J. 150, A75.] [Galdies, C.; Brincat, S.M.; Grech, W. (2019) Minor Planet Bull. 46, 61-62.] |
geometric albedo |
albedo |
0.031 |
|
0.004 |
urn:nasa:pds:neowise_diameters_albedos::2.0[mainbelt] (http://adsabs.harvard.edu/abs/2011ApJ...741...68M) |
|
B-V |
BV |
0.709 |
|
0.016 |
EAR-A-5-DDR-UBV-MEAN-VALUES-V1.2 |
#obs=4; phase (min.=6.46, mean=7.20, max.=7.70) deg. |
U-B |
UB |
0.366 |
|
0.033 |
EAR-A-5-DDR-UBV-MEAN-VALUES-V1.2 |
#obs=4; phase (min.=6.46, mean=7.20, max.=7.70) deg. |
Tholen spectral type |
spec_T |
C |
|
n/a |
EAR-A-5-DDR-TAXONOMY-V4.0 |
used 7 color indices |
|
232 Russia (A883 BA) Discovered 1883-Jan-31 by Palisa, J. at Vienna |
Reference: DISCOVERY.DB | Last Updated: 2003-08-29 |
|
[ show close-approach data ]
Alternate Designations
A883 BA = 1929 QA = 1954 SV = 1970 SN1 = A921 UA |
|
|